CAPE
1614 2146 2197 2330 2631 2345 2102 2324 2192 2349 2409 2700 2778 2073 1513 942 1746 1691 1691 989 788 976 1058 1159 960 1061 1130 808 741 563 460 205 107 243 505 590 445 336 292 362 557 816 998
1533 2335 2389 2539 2518 2529 2514 2511 2726 2762 2807 2968 2772 2008 943 1210 1116 1396 904 808 614 723 723 718 717 612 624 681 522 395 276 367 251 197 228 480 250 142 78 249 245 518 666
1752 2198 2410 2484 2529 2353 2311 2279 2634 2904 3139 3312 2605 2323 1673 1484 891 1064 950 794 888 972 816 556 420 528 506 453 358 398 366 269 183 195 247 335 106 79 30 39 21 153 280
1813 2083 2266 2361 2276 2200 2034 2310 2659 2912 3014 2233 2334 2048 1776 1466 1120 1175 1062 823 997 1003 667 586 432 489 547 199 276 247 266 340 204 257 170 134 223 179 63 61 249 498 445
2617 2703 2338 2406 2432 2640 2609 2559 3202 3284 2377 2129 1765 1740 1236 1046 166 123 465 556 629 562 473 486 521 365 140 9 0 58 157 173 341 396 357 272 237 279 335 412 420 443 494
3233 2913 2766 2803 2862 2985 3404 3585 3081 2052 1795 1786 1621 1109 892 0 0 0 221 322 233 172 347 218 346 378 422 336 327 234 194 303 290 390 435 396 413 426 448 423 399 388 378
3763 2801 3173 3116 3236 3663 3573 3123 2588 2326 2206 1559 1244 1217 124 0 0 23 203 574 646 460 357 428 492 128 0 0 70 295 488 452 338 360 410 375 262 102 84 116 189 332 365
3499 3390 3358 3559 3493 3210 2791 2525 2322 2058 1546 1561 1247 1070 374 0 0 5 143 808 623 105 57 217 41 0 0 0 89 234 596 534 510 441 235 125 88 13 21 121 176 223 349
2806 3044 2948 2775 2698 2657 2346 2219 1817 1538 1271 1080 1086 1201 534 2 0 0 235 606 566 229 14 0 0 0 0 0 265 532 326 372 420 418 181 116 58 2 0 14 22 167 94
2310 2327 2411 2425 2208 1984 1935 1667 1474 1223 1033 857 583 612 516 0 0 0 13 659 711 604 376 1 0 0 0 0 18 259 375 289 489 416 428 251 183 85 44 18 3 1 1
1937 2056 2113 1866 1889 1831 1646 1516 1420 1014 837 839 740 299 231 172 0 0 0 582 321 414 398 270 2 0 0 0 0 35 55 59 404 267 234 124 180 154 94 65 0 0 0
1884 1697 1736 1756 1504 1759 1834 1675 1119 753 720 648 1122 770 241 0 0 0 0 1 7 237 11 89 30 0 0 0 0 0 1 101 230 181 62 62 59 82 162 42 5 1 0
1837 1714 1551 1814 1795 1943 1802 1568 1648 1215 418 248 703 943 721 263 69 0 0 0 0 119 215 39 6 0 0 2 0 0 3 241 155 57 22 0 58 27 59 10 11 0 0
1485 1654 1720 1658 1740 1705 1699 1632 1686 1337 1196 360 160 184 340 678 791 596 366 180 66 49 272 540 393 269 106 28 135 19 268 66 111 76 4 2 37 0 4 12 6 0 0
1758 1563 1471 1460 1632 1271 1516 1053 391 22 367 651 336 253 89 365 0 0 0 16 0 0 0 226 378 173 119 197 371 166 115 123 171 32 31 3 9 16 15 8 0 0 0
1536 1339 1174 807 1381 1271 1541 479 0 0 0 0 0 62 0 0 0 0 0 0 0 0 0 539 280 154 57 2 64 133 146 98 205 34 11 11 8 1 8 15 6 0 0
1086 816 712 571 651 750 779 335 88 95 0 0 0 0 0 0 0 0 0 0 0 0 0 135 461 167 42 6 41 1 5 0 82 135 57 13 7 8 5 5 18 7 5
1201 537 848 714 791 583 879 810 646 516 275 32 0 0 0 0 0 0 0 0 0 8 1 32 706 193 174 106 67 15 5 11 0 12 16 31 5 10 16 7 2 9 6
1138 922 508 414 669 349 308 631 695 932 894 245 8 0 0 0 0 0 0 0 10 373 1 79 286 223 106 45 12 5 0 1 0 20 14 13 6 4 13 8 0 0 16
1077 988 564 985 572 587 527 225 284 592 433 683 644 68 18 0 0 0 0 41 121 77 0 0 238 61 109 56 54 31 11 6 1 6 6 19 9 11 7 8 12 15 18
590 910 751 513 703 493 199 288 191 510 304 300 419 682 463 216 427 363 465 601 541 3 20 0 0 159 137 136 61 104 10 5 3 4 8 17 18 12 7 9 14 16 17
797 890 892 724 958 562 522 409 271 411 252 287 497 618 257 7 5 41 340 599 545 73 179 27 18 0 3 0 2 12 9 5 4 4 3 15 15 18 9 12 2 8 5
1061 756 363 478 314 205 269 341 380 370 379 401 203 259 8 46 287 254 108 85 211 45 164 192 21 0 0 0 16 7 0 0 0 0 9 20 7 22 5 17 10 11 2
340 433 375 90 209 453 310 206 123 96 142 380 388 201 269 262 172 282 115 7 12 67 130 256 238 10 0 0 21 5 24 8 0 0 0 6 9 5 11 21 21 12 7
361 121 263 306 326 192 225 297 329 172 235 160 54 37 77 74 100 82 95 44 59 79 40 34 69 200 11 0 3 16 0 0 0 0 0 0 3 11 21 24 19 22 33
625 30 47 183 414 363 58 51 101 106 97 22 3 48 60 20 14 20 45 61 22 10 10 0 9 170 30 59 39 2 0 0 0 0 0 0 7 1 9 10 31 31 40
CIN
-26 -58 -61 -69 -69 -64 -53 -34 -34 -21 -16 -9 -11 -12 -4 -78 -4 -6 -14 -34 -36 -32 -28 -22 -32 -16 -14 -14 -20 -25 -22 -20 -17 -52 -18 -22 -23 -48 -17 -8 -33 -27 -14
-18 -30 -45 -50 -56 -46 -51 -44 -35 -33 -25 -1 -12 -8 -38 -47 -40 -26 -40 -28 -32 -24 -15 -3 -7 -16 -15 -4 -2 -16 -35 -23 -8 -17 -43 -28 -59 -97 -105 -91 -82 -48 -42
-15 -25 -33 -55 -50 -45 -25 -35 -26 -19 -5 -1 -14 -19 -45 -39 -68 -15 -14 -13 -6 -2 -5 -10 -19 -11 -15 -13 -17 -11 -14 -21 -22 -14 -20 -23 -80 -101 -115 -176 -134 -139 -95
-20 -31 -42 -50 -49 -36 -10 -5 -3 -10 -10 -59 -34 -18 -19 -19 -33 -5 -2 -5 -1 -0 -8 -12 -18 -6 -1 -27 -24 -17 -21 -22 -28 -23 -33 -28 -20 -65 -105 -116 -103 -56 -43
-20 -25 -42 -29 -36 -10 -26 -31 -38 -32 -52 -68 -96 -25 -19 -30 -210 -210 -47 -3 -1 -4 -3 -7 -3 -10 -38 -82 -0 -70 -40 -33 -14 -3 -8 -20 -21 -18 -13 -20 -19 -20 -24
-22 -16 -27 -21 -39 -27 -15 -23 -55 -102 -96 -67 -94 -48 -33 -0 -0 -3 -160 -38 -57 -65 -4 -13 -8 -6 -1 -11 -11 -17 -27 -14 -16 -2 -0 -0 -2 -0 -0 -0 -0 -2 -0
-3 -35 -28 -48 -23 -6 -2 -8 -33 -41 -29 -69 -56 -35 -158 -0 -0 -337 -152 -27 -9 -8 -13 -3 -3 -98 -0 -0 -119 -26 -5 -14 -24 -10 -0 -0 -16 -66 -69 -70 -31 -0 -0
-1 -3 -10 -3 -3 -6 -7 -11 -12 -21 -57 -26 -11 -24 -135 -0 -0 -400 -189 -17 -13 -210 -261 -92 -247 -0 -0 -0 -170 -57 -4 -8 -11 -16 -45 -82 -100 -224 -194 -72 -45 -28 -12
-9 -12 -12 -11 -9 -8 -15 -13 -24 -38 -47 -33 -18 -9 -102 -88 -0 -0 -154 -34 -38 -141 -321 -0 -0 -0 -0 -0 -101 -18 -58 -45 -31 -19 -75 -91 -128 -6 -0 -18 -156 -69 -88
-20 -12 -6 -6 -7 -16 -18 -33 -37 -38 -36 -48 -97 -95 -118 -0 -0 -0 -353 -37 -16 -42 -76 -26 -0 -0 -0 -0 -174 -131 -57 -95 -14 -13 -12 -16 -34 -125 -191 -179 -0 -0 -0
-12 -10 -8 -9 -10 -8 -12 -10 -5 -20 -48 -49 -69 -187 -261 -283 -0 -0 -0 -50 -60 -15 -21 -55 -186 -0 -0 -0 -0 -297 -284 -283 -33 -32 -14 -17 -9 -23 -66 -92 -13 -0 -0
-9 -9 -5 -3 -11 -3 -3 -3 -20 -70 -79 -76 -33 -50 -210 -0 -0 -0 -0 -141 -116 -83 -318 -176 -211 -0 -0 -0 -0 -0 -150 -180 -82 -73 -102 -59 -23 -11 -2 -73 -15 -0 -2
-3 -4 -3 -2 -4 -4 -8 -21 -18 -34 -134 -201 -23 -8 -24 -159 -229 -0 -0 -0 -0 -165 -85 -270 -362 -0 -0 -83 -0 -0 -285 -99 -113 -117 -109 -0 -57 -67 -32 -23 -12 -0 -1
-37 -2 -0 -2 -10 -24 -28 -29 -9 -15 -20 -112 -209 -172 -80 -14 -21 -43 -90 -161 -235 -280 -87 -49 -84 -134 -235 -159 -200 -337 -110 -176 -138 -130 -46 -12 -89 -0 -8 -7 -18 -0 -0
-8 -10 -7 -5 -9 -10 -7 -35 -116 -234 -170 -52 -120 -139 -224 -80 -0 -0 -0 -140 -0 -0 -0 -151 -78 -189 -230 -198 -130 -185 -218 -198 -139 -218 -197 -9 -11 -14 -8 -16 -0 -0 -0
-19 -17 -7 -29 -4 -9 -14 -104 -0 -0 -0 -0 -0 -197 -0 -0 -0 -0 -0 -0 -0 -0 -0 -51 -112 -218 -282 -213 -280 -197 -182 -218 -141 -253 -86 -3 -9 -4 -10 -5 -17 -0 -0
-25 -50 -38 -78 -65 -43 -35 -129 -314 -406 -0 -0 -0 -0 -0 -0 -0 -0 -0 -0 -0 -0 -2 -205 -43 -187 -301 -274 -347 -2 -411 -0 -232 -173 -237 -15 -7 -6 -10 -11 -14 -21 -16
-10 -75 -24 -45 -34 -39 -36 -39 -80 -125 -250 -456 -0 -0 -0 -0 -0 -0 -0 -0 -0 -30 -24 -67 -23 -152 -158 -234 -266 -348 -417 -287 -0 -377 -298 -239 -8 -13 -8 -8 -3 -3 -8
-14 -17 -79 -98 -30 -92 -110 -49 -61 -54 -46 -237 -157 -0 -0 -0 -0 -0 -0 -0 -73 -53 -10 -94 -84 -120 -178 -259 -292 -184 -0 -2 -0 -257 -3 -3 -5 -9 -3 -9 -0 -0 -10
-19 -42 -81 -21 -58 -41 -42 -128 -112 -41 -97 -39 -66 -278 -298 -0 -0 -0 -12 -180 -130 -51 -0 -0 -78 -180 -187 -197 -185 -198 -11 -9 -3 -3 -5 -4 -4 -2 -9 -11 -6 -10 -16
-78 -21 -65 -110 -67 -54 -141 -84 -156 -49 -129 -140 -104 -68 -114 -167 -73 -76 -86 -53 -44 -17 -147 -0 -0 -98 -115 -107 -173 -98 -13 -3 -5 -2 -10 -1 -6 -7 -7 -14 -11 -12 -13
-23 -10 -22 -44 -9 -33 -23 -42 -93 -61 -119 -117 -99 -102 -192 -237 -160 -221 -88 -40 -36 -94 -85 -111 -50 -0 -9 -0 -2 -5 -8 -7 -17 -11 -4 -6 -3 -2 -3 -6 -7 -15 -13
-4 -27 -129 -87 -134 -143 -95 -55 -39 -55 -63 -61 -130 -116 -202 -223 -69 -66 -87 -78 -47 -95 -61 -56 -100 -0 -0 -0 -4 -10 -0 -0 -0 -0 -12 -6 -9 -4 -5 -2 -10 -7 -8
-83 -54 -93 -259 -167 -55 -78 -111 -158 -178 -160 -48 -54 -135 -96 -70 -95 -39 -77 -156 -147 -56 -38 -33 -44 -14 -0 -0 -12 -23 -36 -26 -0 -0 -0 -7 -3 -6 -4 -8 -10 -5 -6
-69 -175 -102 -91 -88 -142 -116 -60 -34 -91 -70 -118 -199 -190 -149 -141 -103 -90 -64 -103 -70 -36 -46 -47 -49 -37 -28 -0 -21 -45 -0 -0 -0 -0 -0 -0 -3 -10 -8 -7 -14 -4 -3
-19 -236 -216 -116 -49 -64 -214 -212 -120 -119 -136 -121 -150 -178 -153 -179 -165 -129 -77 -48 -72 -85 -43 -0 -9 -18 -50 -32 -36 -5 -0 -0 -0 -0 -0 -0 -9 -4 -7 -7 -10 -4 -4
Wind_Speed
14 12 11 9 9 8 6 7 6 10 12 15 15 18 19 19 23 19 20 14 9 19 22 20 17 20 19 21 21 22 23 20 27 29 28 30 22 17 7 8 21 22 24
9 10 8 8 9 8 6 5 6 7 12 18 20 23 18 23 24 25 22 17 9 7 6 8 7 8 11 18 16 15 17 18 16 18 23 29 27 24 24 25 24 24 29
6 6 6 7 7 6 5 5 5 10 14 18 20 22 26 26 22 20 21 13 11 10 12 7 6 14 18 21 24 22 21 24 23 21 24 27 27 29 30 30 29 27 32
4 4 4 5 5 5 6 6 8 11 15 17 19 24 24 23 23 23 24 19 14 12 9 10 10 10 18 24 24 22 21 24 27 26 25 24 24 27 28 34 33 30 30
8 14 5 4 5 10 11 11 12 15 17 18 20 21 22 23 25 25 17 11 21 18 15 14 11 18 21 22 21 21 23 23 24 24 27 30 29 27 27 27 28 29 30
15 19 9 9 10 9 11 11 12 16 17 18 20 19 21 23 25 24 22 20 20 20 19 20 22 23 24 21 18 17 15 17 20 23 25 28 28 28 28 29 29 28 26
6 4 6 7 8 9 9 11 13 14 14 17 17 18 20 21 22 24 21 22 24 26 26 26 25 25 25 20 19 20 20 17 16 20 25 27 27 29 30 29 30 29 25
8 6 6 6 6 7 8 9 11 13 15 16 17 17 18 19 21 21 19 22 25 27 27 27 27 26 26 24 21 22 23 21 21 23 25 27 27 28 29 27 27 26 25
7 7 7 7 7 8 9 10 11 13 14 15 16 17 18 20 22 21 19 20 22 24 26 27 26 25 24 23 22 19 22 24 21 21 23 24 26 29 29 28 29 27 26
10 11 12 11 10 10 10 11 12 13 15 16 17 18 20 21 21 20 19 16 20 20 22 24 26 25 24 24 24 23 23 20 21 21 21 22 24 27 29 28 28 27 28
12 13 15 15 14 13 13 15 14 15 15 16 18 20 20 20 22 22 21 23 23 21 22 21 21 20 21 22 22 24 20 16 17 20 22 22 21 22 25 28 28 28 29
14 13 15 18 18 16 17 14 15 16 18 19 19 19 20 20 21 23 23 22 21 22 22 21 20 19 18 17 21 20 17 16 20 22 21 21 19 19 21 24 27 28 30
15 13 17 15 15 17 19 20 20 20 19 18 17 17 17 17 18 18 19 19 20 19 17 16 16 14 11 12 12 17 20 21 22 21 23 22 20 18 19 24 26 28 30
13 13 13 15 20 23 22 21 19 17 17 17 16 16 16 15 16 16 13 13 12 12 10 10 8 9 10 13 15 17 20 20 19 21 23 22 23 23 22 22 23 26 30
10 12 15 18 21 20 18 9 14 13 14 12 12 13 15 16 16 18 17 15 12 12 7 10 18 17 11 11 11 18 21 21 19 17 20 21 22 20 23 24 24 26 28
11 16 19 17 21 21 19 16 12 14 15 14 15 16 16 17 16 16 14 11 10 9 11 9 16 25 24 24 16 21 22 20 18 17 21 20 20 21 22 21 24 24 26
12 19 17 20 18 21 18 17 16 15 16 16 15 15 16 15 15 14 12 9 8 10 10 10 14 20 21 22 20 24 22 20 17 18 18 17 19 19 20 22 23 24 23
29 24 25 24 23 18 16 17 16 15 15 16 16 16 15 14 13 12 10 7 7 9 10 9 13 17 18 19 20 22 23 22 20 17 18 18 20 19 19 19 22 22 21
28 27 26 25 19 7 21 17 15 15 14 15 16 16 15 13 12 11 10 10 9 13 20 23 18 19 18 18 18 21 22 22 21 18 18 18 18 18 18 22 20 20 20
29 24 28 26 6 9 17 21 13 13 12 11 12 14 14 13 10 8 9 9 9 15 21 22 16 16 17 18 16 18 19 19 20 19 20 20 19 19 18 18 20 18 19
10 21 26 25 23 14 17 18 19 10 10 11 11 12 12 10 8 8 9 9 9 15 19 21 15 18 16 18 16 15 18 21 18 18 16 17 17 18 17 18 17 17 18
2 3 13 28 23 12 15 12 10 10 14 14 11 10 11 10 11 9 10 7 12 14 14 15 17 21 19 17 15 18 16 16 18 17 17 15 15 16 16 16 17 18 16
22 1 5 8 25 23 14 10 17 9 9 9 10 8 8 9 8 7 15 15 11 13 12 13 16 16 17 18 16 17 15 15 16 16 15 17 13 15 13 15 14 14 15
13 12 3 6 10 6 7 9 17 24 19 18 20 14 7 7 13 16 15 15 11 14 15 12 12 13 15 17 19 20 20 18 17 15 14 14 14 13 11 11 10 13 13
18 17 13 3 5 7 19 21 5 7 7 8 8 10 16 16 11 11 11 11 11 13 12 11 10 10 11 11 14 15 16 19 19 16 13 13 13 12 11 11 11 11 12
22 5 10 11 4 5 6 14 18 19 18 16 16 15 13 14 15 17 18 17 16 15 17 18 13 8 7 8 9 11 13 16 18 17 13 12 11 12 12 11 11 10 11
Wind_Direction
140 134 130 133 131 123 95 62 67 20 4 357 3 354 350 2 356 9 7 20 39 348 333 337 343 336 332 333 335 333 330 327 316 316 318 315 330 346 353 295 334 324 321
119 133 119 109 129 124 112 84 53 41 4 351 349 338 19 352 354 355 4 13 28 23 17 10 360 358 350 346 345 343 344 340 334 326 327 317 320 325 328 328 330 328 315
50 92 95 104 104 117 105 71 73 8 359 352 348 348 345 352 2 7 4 16 18 17 8 7 2 359 351 343 337 338 341 338 338 339 333 327 324 322 324 327 331 324 312
61 40 73 84 92 89 103 104 16 7 7 1 355 351 353 0 4 2 360 14 27 34 42 37 30 23 5 351 347 350 349 343 338 337 338 338 336 333 330 320 318 323 325
328 314 18 35 73 356 351 350 359 356 1 358 0 355 0 3 360 2 31 61 21 33 43 48 57 25 13 12 13 3 355 356 356 353 344 337 338 341 340 339 333 332 327
307 294 337 338 348 355 348 353 355 354 2 4 2 6 358 3 358 14 25 40 42 44 45 42 39 30 21 31 40 38 40 29 19 10 2 352 349 346 343 340 337 336 336
350 9 346 348 349 347 353 355 349 3 22 8 13 11 12 22 26 30 54 54 41 29 29 30 35 33 29 43 41 37 36 44 43 25 8 2 358 349 344 342 337 333 339
353 9 11 21 21 6 11 16 33 25 15 16 19 27 39 46 47 55 70 63 53 42 41 42 43 44 47 52 55 46 37 38 33 24 15 7 3 356 351 349 346 346 346
21 15 16 14 23 38 45 39 28 18 21 25 33 46 49 44 30 51 77 70 59 58 54 50 51 52 53 49 52 52 42 33 41 40 32 25 19 7 359 354 344 343 346
55 75 74 68 63 55 41 29 31 42 54 52 59 58 54 53 57 49 340 83 71 66 64 56 49 51 54 52 48 49 47 52 48 47 45 42 33 17 7 2 358 354 347
74 73 80 79 71 66 59 66 55 60 50 64 63 67 66 73 57 10 4 35 38 66 58 59 58 65 63 61 60 59 61 67 64 62 55 51 55 55 40 21 17 11 356
82 77 82 90 89 77 78 56 58 76 86 96 103 92 78 74 62 45 55 59 61 59 58 66 73 74 75 77 65 67 71 72 67 62 62 64 65 66 64 56 42 28 18
83 77 93 78 74 86 95 104 105 117 105 109 117 110 84 89 79 76 74 71 62 66 76 79 74 80 89 84 82 72 66 63 60 63 60 62 69 72 72 59 53 40 34
84 86 79 83 105 123 124 133 148 130 128 116 111 97 80 96 84 77 90 92 94 90 104 105 103 99 84 78 72 71 64 66 69 63 60 64 64 63 64 63 63 53 48
85 85 95 106 126 132 163 357 46 356 10 341 57 82 85 73 60 53 58 72 89 85 161 107 67 68 82 79 92 68 60 61 66 74 70 70 70 71 66 56 56 56 54
98 109 122 105 136 146 116 90 335 33 38 42 50 61 59 68 73 75 83 111 107 112 96 109 60 27 31 37 68 56 52 55 66 73 66 68 70 70 66 66 62 64 61
111 133 123 133 123 145 128 119 124 114 81 83 94 94 87 100 97 99 106 130 139 101 101 100 68 43 41 42 47 35 43 49 66 62 67 71 66 67 66 66 66 69 71
201 158 190 177 203 129 120 135 134 111 106 110 121 113 115 118 116 112 110 123 138 104 97 95 76 50 46 41 40 32 32 38 43 57 57 60 56 62 65 70 68 72 74
214 204 196 196 222 358 187 154 135 117 98 99 97 111 116 117 117 117 107 111 119 83 53 34 56 48 44 44 44 35 37 37 42 48 48 55 55 59 62 55 68 74 73
215 230 206 210 346 86 263 203 219 87 50 101 106 107 102 97 120 124 120 118 118 61 37 34 56 54 51 50 57 47 46 46 42 42 39 41 46 49 54 61 60 69 71
262 243 226 229 221 127 141 154 183 93 82 109 49 96 101 96 120 116 117 111 120 59 43 37 62 47 57 52 52 53 41 36 44 45 50 46 45 46 49 54 60 69 73
265 285 266 223 232 242 186 130 110 6 321 343 54 83 96 86 98 119 95 107 96 63 57 54 48 31 41 42 58 48 46 45 39 39 40 46 52 49 53 50 52 54 71
245 306 326 279 223 233 296 295 293 351 19 38 34 72 79 83 106 122 48 48 71 49 55 58 42 45 43 39 44 40 46 49 46 42 45 42 56 49 57 52 56 59 56
267 266 84 94 122 21 355 334 295 253 296 307 312 357 70 62 25 30 28 30 42 35 35 45 43 42 39 41 33 26 30 35 29 33 40 41 43 46 58 58 70 58 62
255 258 273 358 359 333 275 270 111 103 26 29 42 22 354 2 25 29 33 39 37 28 25 30 36 45 44 40 36 36 37 29 31 31 35 36 36 42 47 49 54 60 57
241 303 283 290 6 30 20 277 286 288 304 329 336 353 6 4 358 357 1 7 8 10 9 6 15 35 51 50 49 47 35 25 24 31 36 34 43 42 40 39 37 49 53